Simultaneous Nadir Overpasses (SNOs) Predictions

Prediction of SNOs between METOP-B and NOAA-19 Satellite Orbit:

Table of predicted SNOs for the next 14.0 days since TLE Epoch: 7/6/2024
Index Date (METOP-B) Time (METOP-B) Lat,Lon (METOP-B) SZA (METOP-B ) Date (NOAA-19) Time (NOAA-19) Lat,Lon (NOAA-19) SZA (NOAA-19 ) Distance(km) Time Diff (sec)
1 07/13/2024 04:09:38 45.06, 86.56 35.25 07/13/2024 04:08:45 45.03, 86.64 35.33 6.86 53
2 07/13/2024 05:00:23 -45.01,-106.14 144.76 07/13/2024 04:59:42 -45.02,-106.10 144.68 3.39 41
3 07/13/2024 05:49:53 48.92, 62.77 36.65 07/13/2024 05:49:35 48.93, 62.78 36.69 1.40 18
4 07/13/2024 06:39:49 -51.67,-128.68 142.16 07/13/2024 06:39:43 -51.68,-128.66 142.15 2.08 6
5 07/13/2024 07:29:17 55.68, 40.72 39.85 07/13/2024 07:29:34 55.69, 40.73 39.82 1.55 17
6 07/13/2024 08:19:23 -57.80,-150.71 138.97 07/13/2024 08:19:52 -57.82,-150.68 139.01 2.87 29
7 07/13/2024 09:09:08 60.82, 18.67 42.84 07/13/2024 09:10:00 60.84, 18.70 42.78 2.72 52



Historial Predications of SNOs between METOP-B and NOAA-19
